SCP
3 3 3 3 3 4 4 4 4 3 3 3 2 1 1 1 1 1 1 1 1 1 1 1 1 1 1 1 0 0 0 0 0 0 0 0 0 0 0 0 0 0 0
3 3 3 3 3 4 4 4 4 4 3 3 2 1 1 1 1 1 1 1 1 1 1 1 1 1 1 1 0 0 0 0 0 0 0 0 0 0 0 0 0 0 0
3 3 3 3 3 4 4 4 4 4 4 3 3 2 1 1 1 1 1 1 1 1 1 1 1 1 1 1 0 0 0 0 0 0 0 0 0 0 0 0 0 0 0
3 3 3 3 4 4 4 4 4 3 4 3 3 2 2 1 1 1 1 1 1 1 1 1 1 1 1 1 0 0 0 0 0 0 0 0 0 0 0 0 0 0 0
4 3 3 4 4 4 4 4 4 3 3 3 3 2 2 1 1 1 1 1 1 1 1 1 1 1 1 1 0 0 0 0 0 0 0 0 0 1 1 1 1 1 1
4 4 3 4 4 4 4 5 4 4 3 3 3 3 2 2 2 2 2 2 2 2 2 1 1 1 1 1 1 0 0 0 0 0 0 0 0 1 1 1 1 1 0
4 4 4 4 4 4 4 5 5 4 4 4 3 3 3 2 2 2 2 2 2 2 2 2 2 1 1 1 1 0 0 0 0 0 0 0 0 1 1 1 0 0 0
5 4 4 4 4 4 4 5 5 5 5 4 4 3 3 3 3 2 2 2 2 2 2 2 2 1 1 1 1 0 0 0 0 0 0 0 1 1 1 1 1 0 0
6 5 4 4 4 4 4 5 6 6 6 5 4 4 4 3 3 3 2 2 2 2 2 2 2 1 1 1 0 0 0 0 0 0 0 0 1 1 1 1 1 1 0
6 5 4 4 4 4 4 4 5 6 6 6 5 4 4 4 3 3 2 2 2 2 2 2 1 1 1 1 0 0 1 1 0 0 0 0 1 1 1 1 1 1 1
6 5 4 4 4 4 3 4 4 5 6 6 6 5 4 4 4 3 2 2 2 2 2 2 1 1 1 1 1 0 1 1 1 1 1 1 1 1 0 1 1 1 1
5 5 4 4 4 4 3 3 4 4 5 6 7 6 5 5 4 3 2 2 2 2 2 1 1 1 1 1 1 1 1 1 1 1 1 1 1 1 0 1 1 1 1
4 4 4 4 4 3 3 3 4 4 5 6 7 7 6 5 4 3 3 2 2 2 1 1 1 1 1 1 1 1 1 1 1 1 1 1 1 1 1 1 1 1 1
4 3 3 4 4 3 3 3 4 4 4 5 6 6 6 5 5 4 3 3 2 2 1 1 1 1 1 1 1 1 1 1 1 0 0 1 1 1 1 1 1 1 1
3 3 3 3 4 4 4 3 4 4 4 5 5 6 6 6 5 5 4 3 2 2 1 1 1 1 1 1 1 1 1 1 1 1 0 0 1 1 1 1 1 1 1
2 2 2 3 3 4 4 3 3 4 4 5 5 6 6 6 6 5 4 3 2 1 1 1 1 1 0 0 0 1 1 0 0 1 1 0 0 1 1 1 1 1 0
2 2 2 2 3 4 4 4 3 3 4 5 5 6 6 6 6 5 4 2 1 1 1 1 1 0 0 0 0 0 0 0 0 0 0 1 0 0 1 1 1 1 1
2 2 2 2 3 3 4 4 3 3 3 5 6 6 6 6 5 4 3 2 1 0 0 0 0 0 0 0 0 0 0 0 0 0 0 0 0 0 0 0 1 1 1
2 2 2 2 3 3 3 3 3 3 3 5 6 6 5 4 3 3 1 1 0 0 0 0 0 0 0 0 0 0 0 0 0 0 0 0 0 0 0 0 0 1 1
2 2 2 3 3 3 3 3 3 3 3 4 5 5 4 2 1 1 0 0 0 0 0 0 0 0 0 0 0 0 0 0 0 0 0 0 0 0 0 0 0 0 0
1 2 3 3 3 3 3 3 3 3 2 3 3 3 2 1 0 0 0 0 0 0 0 0 0 0 0 0 0 0 0 0 0 0 0 0 0 0 0 0 0 0 0
1 2 3 3 3 4 4 3 3 3 2 2 2 1 1 0 0 0 0 0 0 0 0 0 0 0 0 0 0 0 0 0 0 0 0 0 0 0 0 0 0 0 0
1 1 2 3 3 4 4 3 3 2 2 2 1 1 1 0 0 0 0 0 0 0 0 0 0 0 0 0 0 0 0 0 0 0 0 0 0 0 0 0 0 0 0
0 1 1 2 2 3 4 3 3 2 2 2 1 1 1 0 0 0 0 0 0 0 0 0 0 0 0 0 0 0 0 0 0 0 0 0 0 0 0 0 0 0 0
0 1 1 2 2 2 3 3 3 2 2 1 1 1 1 1 0 0 0 0 0 0 0 0 0 0 0 0 0 0 0 0 0 0 0 0 0 0 0 0 0 0 0
0 1 1 2 1 2 2 3 2 2 2 1 1 1 1 1 0 0 0 0 0 0 0 0 0 0 0 0 0 0 0 0 0 0 0 0 0 0 0 0 0 0 0
Wind_Speed
9 12 13 13 13 12 12 11 11 11 10 10 10 10 10 10 10 10 10 10 9 9 9 9 9 9 9 9 9 9 8 8 8 8 7 6 7 7 7 7 6 4 7
12 13 13 13 13 12 12 11 11 11 10 10 10 10 10 10 10 10 9 9 9 9 9 9 9 8 8 8 8 8 8 7 6 6 5 5 6 6 7 7 7 4 7
12 14 13 13 13 12 12 11 11 11 11 10 10 10 10 10 9 9 9 9 9 8 8 8 8 8 8 8 8 7 7 7 6 5 3 2 4 7 7 7 7 6 6
12 12 12 13 13 13 12 12 12 11 11 11 11 11 10 10 10 9 9 9 8 8 8 8 8 8 8 7 7 7 7 6 6 5 2 3 4 7 7 7 6 6 6
11 11 12 13 13 13 13 12 12 12 12 12 12 11 11 10 10 10 9 9 9 8 9 8 8 8 7 7 6 6 5 5 6 5 3 4 4 7 8 7 7 6 6
11 11 12 14 14 13 13 13 12 12 12 12 11 11 11 11 10 10 10 9 9 9 9 8 8 7 7 6 5 5 5 5 4 3 3 4 4 7 8 8 7 6 6
10 10 12 13 14 13 13 13 12 12 11 11 11 11 11 11 10 10 10 10 10 9 9 8 8 7 7 6 5 5 5 6 3 2 3 4 4 6 7 7 7 6 5
11 10 11 13 14 13 13 12 12 12 11 11 11 11 11 10 10 10 10 9 9 9 8 7 7 7 7 6 5 5 5 6 3 3 3 3 5 6 6 6 6 6 6
11 10 9 9 11 12 12 12 12 11 11 11 10 10 10 10 10 9 9 9 8 8 7 6 6 6 6 5 5 5 5 5 3 2 3 3 5 6 6 6 6 6 6
9 9 9 9 9 8 8 11 11 11 11 10 10 9 9 9 9 9 9 8 7 7 7 6 6 5 5 4 3 4 5 4 2 3 2 3 6 6 6 6 6 6 6
7 7 7 8 8 8 7 9 9 9 9 9 7 7 5 4 5 6 7 7 7 6 6 5 4 4 3 2 2 3 3 1 1 2 2 4 5 5 6 6 6 6 6
7 6 6 7 7 7 6 6 5 5 5 4 4 4 3 4 3 4 6 6 5 4 4 3 3 2 2 1 1 2 1 1 2 2 3 5 5 5 5 6 6 6 7
7 6 6 6 6 6 5 4 3 3 3 3 4 4 4 3 3 2 2 2 2 2 2 1 1 1 1 1 1 1 2 1 1 2 3 5 5 5 5 6 7 7 7
7 6 6 6 5 5 5 4 3 3 2 3 3 4 3 3 2 2 2 2 1 1 1 1 1 1 2 2 2 2 2 2 1 2 2 4 4 5 6 7 7 8 8
7 7 6 6 6 5 4 4 4 3 3 4 3 3 3 3 2 2 2 2 2 1 1 1 2 2 2 2 2 2 2 3 2 2 1 3 4 4 5 7 7 8 8
7 7 6 6 5 6 5 4 4 4 4 4 3 3 3 3 3 2 2 2 2 2 1 1 2 2 2 2 2 3 3 3 2 2 2 2 3 4 5 7 8 8 9
7 7 7 6 6 6 6 5 4 4 4 4 3 4 4 3 3 3 2 2 2 1 2 2 2 2 2 2 2 3 3 2 2 2 2 1 1 4 6 7 8 9 10
6 7 7 6 6 6 5 5 4 4 4 3 3 3 4 4 3 3 2 2 1 2 1 1 2 2 2 2 2 2 2 2 2 2 2 2 1 2 3 6 8 9 10
6 7 6 6 7 6 6 5 5 4 4 3 3 3 3 4 3 3 2 2 2 2 2 2 2 2 2 2 2 2 1 1 1 2 2 2 2 2 1 4 7 9 10
5 6 6 6 6 6 5 4 4 4 3 3 3 4 4 3 3 3 2 2 2 2 1 1 2 2 1 1 2 2 1 1 1 1 1 2 2 2 2 2 3 4 8
4 5 6 6 6 6 5 4 4 3 3 3 3 4 4 4 3 3 2 2 2 2 1 1 1 2 2 2 2 2 2 1 0 1 1 2 2 2 3 3 2 2 3
4 5 5 5 6 6 4 4 4 4 3 3 3 4 4 4 3 3 3 2 2 2 2 2 2 1 1 2 1 1 2 3 3 2 1 1 2 2 3 3 3 3 3
4 4 4 5 5 6 6 5 4 3 3 3 3 3 3 4 4 3 3 2 2 2 1 1 1 1 1 1 2 1 1 1 3 3 2 2 2 2 3 3 4 4 4
4 3 4 4 4 5 6 6 7 5 4 3 4 3 3 4 4 3 3 2 2 2 1 1 1 1 1 0 1 1 0 1 0 3 3 2 3 3 3 4 4 4 4
4 4 3 4 4 4 5 6 6 5 4 4 4 5 4 3 4 3 3 2 2 2 1 1 1 1 1 1 0 1 1 1 1 1 4 4 4 3 3 3 3 3 4
3 4 3 4 4 4 4 5 5 6 6 6 5 5 4 3 2 3 3 2 2 2 2 1 1 1 0 1 0 0 0 0 1 1 3 5 5 4 4 3 3 3 3
Wind_Direction
123 131 135 134 133 131 128 126 124 121 118 115 112 110 107 104 101 98 97 95 92 89 88 86 83 78 75 71 68 65 63 60 61 61 61 64 68 63 52 43 43 47 53
126 130 133 133 132 130 127 125 120 117 115 115 113 112 111 107 103 100 97 95 93 89 86 83 80 77 73 72 69 66 62 59 54 50 51 61 66 61 51 47 49 45 49
124 129 132 130 130 128 126 121 117 115 112 111 111 110 109 107 103 100 96 93 91 87 83 82 79 76 75 71 68 64 59 54 40 24 22 70 70 61 56 50 48 42 39
122 126 130 128 129 128 125 120 116 114 112 109 108 107 104 103 101 97 95 93 90 86 83 80 78 74 73 71 69 64 56 41 18 3 22 53 60 59 54 45 42 37 34
117 120 124 127 128 127 125 121 117 114 111 109 106 104 102 101 99 96 92 88 86 84 81 78 74 71 72 71 68 62 47 23 4 3 21 49 56 55 51 43 37 32 29
117 119 124 127 127 125 122 119 116 113 112 110 107 104 102 100 97 94 88 84 83 82 79 76 72 70 68 68 66 57 35 10 2 8 37 49 53 50 47 41 33 29 26
118 120 126 128 127 125 122 119 116 114 112 111 108 105 102 100 96 93 90 84 81 81 78 74 72 69 66 63 59 46 21 356 351 19 46 48 50 49 40 34 26 22 19
120 120 126 125 125 123 121 119 117 114 112 110 108 105 102 99 97 93 89 85 81 79 77 75 71 67 63 59 52 36 17 355 349 25 53 45 51 48 36 27 21 19 16
121 125 128 129 124 121 119 118 116 114 112 110 108 106 103 100 98 95 90 85 81 78 75 74 71 65 59 53 42 23 3 348 353 17 45 42 51 48 35 27 21 16 14
123 131 135 136 131 127 121 117 116 115 115 113 111 110 108 105 101 94 89 84 81 78 75 70 65 62 58 48 27 1 340 334 3 30 35 38 45 39 28 20 15 11 6
125 131 136 135 130 125 124 123 121 122 124 122 120 122 122 113 106 98 93 93 87 80 74 68 60 53 51 36 357 329 322 328 60 54 36 39 41 30 17 11 5 359 357
142 138 136 133 131 130 130 131 136 135 140 134 126 118 101 91 91 101 105 103 96 86 74 63 41 23 14 353 328 328 325 350 64 69 49 44 32 16 4 359 354 348 344
147 139 136 131 132 129 129 130 121 119 122 114 109 108 111 106 107 106 115 116 111 97 63 35 14 2 28 15 353 351 346 11 48 65 55 46 28 10 1 357 354 350 346
142 138 132 131 128 125 124 124 124 119 116 115 113 111 110 105 96 96 95 89 75 66 39 7 356 32 27 17 12 9 8 21 47 76 73 52 29 8 358 355 351 349 348
147 143 138 136 131 125 118 125 121 118 116 113 109 103 100 108 105 93 89 75 60 55 40 6 17 31 28 18 8 17 14 14 28 62 78 57 32 4 352 350 349 349 349
150 147 141 142 137 132 127 123 117 116 114 115 111 107 99 101 102 95 83 72 59 46 24 21 32 31 27 22 14 15 12 14 24 42 80 56 25 3 358 354 349 345 342
148 147 144 148 145 139 133 130 119 119 120 118 114 110 104 100 103 100 90 75 57 37 28 22 27 29 21 23 22 16 14 16 14 23 36 50 27 17 4 350 344 340 339
143 143 148 153 145 136 130 128 123 123 122 119 118 117 110 103 103 99 96 88 61 42 39 35 33 32 17 17 9 356 3 2 2 15 26 19 22 20 1 349 339 336 335
145 142 144 144 138 132 124 120 117 119 120 122 119 119 119 111 105 102 100 94 76 57 40 32 40 36 26 12 355 344 355 351 339 9 18 10 13 6 351 343 340 335 333
136 141 141 138 137 131 122 117 112 116 122 121 121 123 121 117 110 104 105 94 82 77 49 45 48 30 35 1 345 344 322 308 320 8 355 358 359 352 343 335 328 324 330
125 134 144 142 146 140 135 138 134 142 141 129 126 127 126 121 114 107 108 98 83 89 74 51 53 47 26 7 15 344 327 305 341 9 355 351 341 334 333 326 322 318 319
136 136 142 146 151 146 145 145 137 136 135 131 125 128 130 124 119 117 116 112 100 92 66 53 54 50 19 23 27 357 345 341 348 338 332 325 327 334 330 328 326 322 314
142 148 149 152 155 151 143 130 121 108 107 116 131 139 138 133 125 121 121 116 108 108 108 71 71 78 66 357 36 71 58 303 319 312 306 319 325 328 317 317 325 326 323
147 141 146 149 152 152 145 147 151 151 153 158 153 148 140 136 133 130 127 120 117 110 110 105 80 81 101 19 347 24 142 191 305 313 313 317 328 321 314 323 326 316 319
140 143 148 146 149 149 152 154 156 151 147 138 140 143 142 141 139 137 134 129 126 116 112 92 79 72 102 130 61 335 332 330 275 250 293 307 315 305 309 309 306 311 319
123 135 143 148 151 150 151 160 159 156 150 147 151 151 150 146 144 148 144 142 137 131 133 130 119 100 87 87 54 36 290 291 299 291 285 300 302 299 300 296 304 314 320